Home > Weather > Shanghai > Past weeks

Flag for China Weather for the Past 2 Weeks in Shanghai, Shanghai Municipality, China

Now
59 °F

Sunny.


Feels Like: 57 °F
Forecast: 40 / 56 °F
Wind: 13 mph from Southwest

Location: Shanghai Hongqiao Airport

Current Time: Feb 8, 2016 at 3:17:02 PM

Latest Report: Feb 8, 2016 at 2:30 PM


Visibility: 10 mi

Pressure: 30.12 "Hg

Humidity: 25%

Dew point: 23 °F

Location of ShanghaiLocation

Historic Weather in Shanghai — Graph

°F

Shanghai Temperature Yesterday

Maximum temperature yesterday: 50 °F (at 1:00 PM)
Minimum temperature yesterday: 28 °F (at 6:30 AM)
Average temperature yesterday: 40 °F

High & Low Weather Summary for the Past Weeks

 TemperatureHumidityPressure
High59 °F (Feb 8, 2:00 PM)100% (Jan 27, 5:00 PM)30.74 "Hg (Jan 27, 5:00 PM)
Low21 °F (Jan 24, 8:00 PM)22% (Feb 7, 3:00 PM)30.09 "Hg (Jan 28, 2:00 PM)
Average38 °F67%30.40 "Hg
* Reported Jan 24 2:00 PM — Feb 8 2:00 PM, Shanghai, Weather by CustomWeather, © 2016

Note: Actual official high and low records may vary slightly from our data, if they occured in-between our weather recording intervals... More about our weather records

Advertising

Shanghai Weather History for the Previous 24 Hours

 ConditionsComfort  
Time TempWeatherWind HumidityBarometerVisibility
2:00 PM
Mon, Feb 8
59 °FSunny.13 mph25%30.12 "Hg10 mi
1:30 PM57 °FPassing clouds.13 mph29%30.12 "HgN/A
1:00 PM57 °FPassing clouds.13 mph25%30.15 "HgN/A
12:30 PM57 °FSunny.10 mph29%30.15 "Hg10 mi
12:00 PM55 °FPassing clouds.10 mph31%30.18 "HgN/A
11:30 AM55 °FPassing clouds.10 mph33%30.18 "HgN/A
11:00 AM54 °FSunny.10 mph35%30.21 "Hg10 mi
10:30 AM52 °FSunny.10 mph35%30.21 "Hg10 mi
10:00 AM50 °FSunny.8 mph37%30.24 "Hg10 mi
9:30 AM48 °FSunny.8 mph37%30.24 "Hg10 mi
9:00 AM46 °FSunny.3 mph46%30.24 "Hg10 mi
8:30 AM43 °FSunny.3 mph61%30.24 "Hg10 mi
8:00 AM39 °FSunny.3 mph75%30.24 "Hg10 mi
7:30 AM34 °FSunny.1 mph81%30.21 "Hg10 mi
7:00 AM30 °FSunny.1 mph86%30.21 "Hg10 mi
6:30 AM30 °FClear.1 mph86%30.21 "Hg5 mi
6:00 AM34 °FClear.1 mph81%30.21 "Hg4 mi
5:30 AM32 °FClear.3 mph80%30.21 "Hg4 mi
5:00 AM32 °FClear.3 mph80%30.21 "Hg4 mi
4:30 AM34 °FClear.1 mph81%30.21 "Hg5 mi
4:00 AM34 °FClear.1 mph70%30.21 "Hg5 mi
3:30 AM32 °FClear.1 mph75%30.24 "Hg5 mi
3:00 AM37 °FClear.No wind60%30.24 "Hg5 mi
2:30 AM36 °FClear.1 mph65%30.24 "Hg5 mi
2:00 AM34 °FClear.3 mph70%30.24 "Hg5 mi
1:30 AM36 °FClear.3 mph70%30.24 "Hg10 mi
1:00 AM36 °FClear.3 mph70%30.24 "Hg10 mi
12:30 AM36 °FClear.1 mph65%30.24 "Hg10 mi
12:00 AM36 °FClear.3 mph70%30.24 "Hg10 mi
11:30 PM
Sun, Feb 7
37 °FClear.No wind56%30.24 "Hg10 mi
11:00 PM39 °FPassing clouds.3 mph48%30.24 "HgN/A
10:30 PM41 °FPassing clouds.3 mph42%30.24 "HgN/A
10:00 PM43 °FClear.3 mph39%30.24 "Hg10 mi
9:30 PM45 °FClear.6 mph37%30.24 "Hg10 mi
9:00 PM39 °FClear.3 mph48%30.24 "Hg10 mi
8:30 PM41 °FClear.3 mph45%30.21 "Hg10 mi
8:00 PM45 °FClear.3 mph37%30.21 "Hg10 mi
7:30 PM45 °FClear.3 mph39%30.21 "Hg10 mi
7:00 PM45 °FClear.3 mph37%30.21 "Hg10 mi
6:30 PM45 °FClear.1 mph34%30.18 "Hg10 mi
6:00 PM45 °FClear.1 mph34%30.18 "Hg10 mi
5:30 PM46 °FSunny.3 mph29%30.18 "Hg10 mi
5:00 PM48 °FPassing clouds.8 mph25%30.18 "HgN/A
4:30 PM48 °FSunny.10 mph25%30.18 "Hg10 mi
4:00 PM50 °FPassing clouds.8 mph24%30.18 "HgN/A
3:30 PM50 °FPassing clouds.13 mph24%30.18 "HgN/A
3:00 PM50 °FPassing clouds.13 mph22%30.18 "HgN/A
Weather by CustomWeather, © 2016

See weather overviewHow to use our weather pages